THORAD AGENA D DEB *, 6159

Orbit data source: Space-Track

THORAD AGENA D DEB *, 6159 is space debris in SSO originally from a launch on Wed, 08 Apr 1970 UTC launched from the Air Force Western Test Range (AFWTR). Debris objects in space refer to the collection of defunct objects orbiting the Earth. Examples of debris include non-operational satellites, rocket bodies, and fragments generated from explosions, collisions, or faulty payload assembly.

Loading next visibility...
Identifier
6159, 1970-025MY
Orbit
SSO
Country
Flag of USUS
Related business
Manufacturer
Unknown
Mission
Spacecraft
Bus & Motor
Unknown
Mass
Unknown
Launch date (UTC)
1970-04-08 (56 years ago)
Launch vehicle
Unknown
Launch site
Air Force Western Test Range (AFWTR)
Object type
Payload
Rocket body
Debris
Shape & HBR
Unknown shape, 0.1 m
Radar Cross Section
Medium (>0.1 m² and <1 m²)

Expand to show TLE details & history
Last TLE update: 2 weeks ago

TLE from 2 weeks ago
0 THORAD AGENA D DEB *
1 06159U 70025MY  26152.37082309  .00000255  00000-0  11287-2 0  9996
2 06159 101.1947 296.8786 0054379 232.5123 153.9761 12.91009139653728
Epoch: 2026-06-01T08:53Z
TLE epoch observation values (Epoch: 2026-06-01T08:53:59.114Z)
Latitude
26.24573°
Longitude
-92.04868°
Altitude
1,338.038 km
Speed
7.173 km/s
True Right ascension
19h 25m 13s
True Declination
26° 07' 11"
Sunlit
Object was in daylight at epoch
Visualization orbit readout
Latitude
Unknown
Longitude
Unknown
Altitude
Unknown
Speed
Unknown
Apparent Right ascension
Unknown
Apparent Declination
Unknown
Sunlit
N/A
Visualization observer readout
Local Sidereal Time
06:08:45
Azimuth
Unknown
Elevation
Unknown
Doppler factor
Unknown
Orbital elements
Apogee altitude
1,336.708 km
Perigee altitude
1,253.256 km
Semi-major axis
7,673.119 km
Eccentricity
0.00544
Inclination
101.1947°
RAAN
296.8786°
Arg. of periapsis
232.5123°
True anomaly
154.24784°
Mean anomaly
153.9761°
Eccentric anomaly
154.11213°
Mean motion
3.22913 °/min
Orbital period
111.49 mins
BSTAR
0.0011287
Loading maneuver chart data...
Computing Atmospheric mass density...

Documentation

Showing up to 5 results
|